Back to catalog

ONEWEB-0288

AliveCommunicationsPO
NORAD 49078·PAYLOAD·🇬🇧 United Kingdom

Launched Aug 21, 2021 from Baikonur Cosmodrome

Loading…

Next Passes (next 24 hours)

TLE

FreshSource: CelesTrak SupGP

Epoch: Sep 14, 2026, 18:30 UTC

1 49078C 21075D   26257.77101111 -.00000242  00000+0 -67379-3 0  2575
2 49078  87.8982 332.8728 0001810 107.7791 352.0087 13.12440619    14

Track ONEWEB-0288 in real time with AllMySat

Download on the App Store